TIME,DELAY(SENSOR),PRES,T(CTD),SAL,OXYGEN,RAWTEMP,T(OPTODE),TCPHASE,TURBIDITY,TURBIDITY_GAIN,FLUOR,BETA,CDOM,ED411.5,ED443.8,ED489.6,PAR,COMP,TILT,TILTY(TILT),CHECK
1341438387,6470,228.3300018310547000,5.2312002182006840,34.9930000305175800,357.8681945800781000,644.9072265625000000,5.2154750823974610,32.4193611145019500,16,3,48,115,62,2147632832,2147394321,2147282395,2148319378,3063,0,-4,23989
1341438449,6469,224.5399932861328000,5.2462000846862790,34.9934997558593750,357.9495849609375000,644.6105957031250000,5.2251000404357910,32.4112281799316400,16,3,50,119,62,2147634111,2147393755,2147282115,2148318665,2814,0,-4,2801
1341438511,6469,220.6900024414062500,5.2561998367309570,34.9950981140136700,357.9905090332031000,644.2349853515625000,5.2372860908508300,32.4031715393066400,14,3,50,127,62,2147630733,2147394139,2147283163,2148322554,2517,0,-4,36509
1341438573,6467,216.8600006103515600,5.2663002014160160,34.9962997436523440,358.0419006347656000,643.9389038085938000,5.2468910217285160,32.3961105346679700,10,3,49,119,62,2147637306,2147392041,2147285115,2148320246,2271,0,-4,1717
1341438635,6466,213.1199951171875000,5.2760000228881840,34.9966011047363300,358.2478027343750000,643.6702270507812000,5.2556037902832030,32.3848686218261700,10,3,49,120,62,2147635337,2147389649,2147283976,2148321937,2036,0,-4,32914
1341438697,6468,209.4100036621093800,5.2849998474121090,34.9976005554199200,358.2492065429687500,643.4044189453125000,5.2642269134521480,32.3800697326660160,16,3,50,122,62,2147634870,2147394659,2147279268,2148319702,1885,0,-4,39061
1341438759,6466,205.7700042724609400,5.2918000221252440,34.9984016418457000,358.2520141601562500,643.1727294921875000,5.2717399597167970,32.3757095336914060,16,3,50,116,62,2147633846,2147392936,2147282902,2148323030,1698,0,-4,60466
1341438821,6469,202.1300048828125000,5.2971000671386720,34.9986991882324200,358.2638854980469000,642.9932250976562000,5.2775611877441410,32.3720207214355500,16,3,48,122,62,2147635203,2147393759,2147285704,2148321544,1520,0,-4,39730
1341438883,6469,198.5099945068359400,5.3018999099731445,34.9990997314453100,358.3031921386719000,642.8535766601562000,5.2820849418640140,32.3686904907226560,16,3,50,159,62,2147632360,2147388977,2147282175,2148322554,1310,0,-4,50331
1341438945,6469,194.8899993896484400,5.3073000907897950,34.9990997314453100,358.3035888671875000,642.6599731445312000,5.2883658409118650,32.3649711608886700,16,3,50,125,63,2147634802,2147390865,2147282285,2148322770,971,0,-4,57939
1341439008,6467,191.1999969482422000,5.3127999305725100,34.9991989135742200,358.3550109863281000,642.5269165039062000,5.2926812171936035,32.3609695434570300,15,3,49,119,62,2147633545,2147394010,2147283442,2148318207,708,0,-4,41136
1341439070,6467,187.5299987792968800,5.3187999725341800,34.9999008178710940,358.3635864257812500,642.3317871093750000,5.2990059852600100,32.3572616577148440,11,3,49,123,62,2147635016,2147390989,2147281864,2148321324,276,0,-4,8434
1341439134,6467,183.6900024414062500,5.3207998275756840,34.9996986389160160,358.2062072753906000,642.1953125000000000,5.3034319877624510,32.3600082397460940,23,3,50,120,62,2147634655,2147394975,2147281142,2148321923,3443,0,-4,26780
1341439196,6468,179.9900054931640600,5.3263001441955570,35.0000991821289060,358.2322082519531000,642.0554199218750000,5.3079662322998050,32.3567008972168000,29,3,50,133,62,2147637206,2147391090,2147282906,2148321713,3152,0,-4,36842
1341439260,6467,176.2200012207031200,5.3344001770019530,35.0012016296386700,358.2174987792969000,641.8372192382812000,5.3150391578674320,32.3531608581543000,15,3,50,125,62,2147634413,2147392767,2147282006,2148322403,2912,0,-4,5960
1341439324,6466,172.4799957275390600,5.3385000228881840,35.0009994506835940,358.2766113281250000,641.7229003906250000,5.3187451362609860,32.3491096496582000,16,3,48,127,63,2147631771,2147394088,2147283099,2148320264,2729,0,-4,32215
1341439388,6469,168.8000030517578000,5.3427000045776370,35.0007019042968750,358.4819946289062500,641.5750122070312000,5.3235378265380860,32.3400802612304700,16,3,50,134,62,2147636195,2147394216,2147286344,2148320808,2443,0,-4,27280
1341439450,6468,165.3999938964843800,5.3453998565673830,35.0010986328125000,358.4056091308594000,641.4725952148438000,5.3268570899963380,32.3408203125000000,16,3,49,129,62,2147636022,2147391345,2147287049,2148320844,2267,0,-4,8824
1341439514,6467,162.0599975585937500,5.3516998291015625,35.0018997192382800,358.3641052246094000,641.2778930664062000,5.3331680297851560,32.3387985229492200,16,3,48,131,62,2147633887,2147392132,2147282171,2148322966,2087,0,-4,21350
1341439576,6468,158.9600067138672000,5.3573999404907230,35.0021018981933600,358.4429931640625000,641.1273193359375000,5.3380470275878910,32.3333091735839840,16,3,49,125,62,2147632031,2147392150,2147285855,2148319510,1951,0,-4,46129
1341439640,6467,155.9900054931640600,5.3666000366210940,35.0019989013671900,358.4202880859375000,640.8516845703125000,5.3469791412353520,32.3290596008300800,12,3,50,132,62,2147637252,2147393087,2147287674,2148322788,1883,0,-4,24793
1341439702,6468,153.2899932861328000,5.3719000816345215,35.0018997192382800,358.4259033203125000,640.7044067382812000,5.3517532348632810,32.3262481689453100,21,3,50,122,62,2147629073,2147392054,2147286893,2148323337,1611,0,-4,13052
1341439766,6468,150.6799926757812500,5.3745999336242680,35.0017013549804700,358.3230895996094000,640.6411132812500000,5.3538041114807130,32.3286399841308600,16,3,50,166,62,2147635510,2147391391,2147285906,2148321389,1415,0,-4,48994
1341439828,6468,148.2299957275390600,5.3817000389099120,35.0029983520507800,358.3252868652344000,640.3950195312500000,5.3617777824401855,32.3240394592285160,16,3,49,126,62,2147632831,2147390755,2147286504,2148324552,1184,0,-4,17828
1341439919,6469,143.8200073242187500,5.3896999359130860,35.0035018920898440,357.9594116210937500,640.1104736328125000,5.3709931373596190,32.3306808471679700,53,3,50,129,62,2147636914,2147391752,2147287290,2148320854,704,0,-4,13288
1341439981,6467,139.8899993896484400,5.3958001136779785,35.0031013488769500,357.8158874511719000,639.9567871093750000,5.3759751319885250,32.3330001831054700,16,3,50,130,62,2147636223,2147391492,2147288722,2148321206,228,0,-4,7035
1341440045,6466,135.6900024414062500,5.4015998840332030,35.0032997131347660,357.7507019042969000,639.7241210937500000,5.3835120201110840,32.3309593200683600,11,3,50,128,62,2147632561,2147389353,2147289444,2148322426,3249,0,-4,37567
1341440107,6467,131.5000000000000000,5.4120001792907715,35.0038986206054700,357.3501892089844000,639.4409179687500000,5.3926868438720700,32.3386993408203100,12,3,50,131,62,2147633265,2147391820,2147290696,2148322843,2983,0,-4,48537
1341440195,6468,125.9700012207031200,5.4331002235412600,35.0045013427734400,356.8151855468750000,638.7263183593750000,5.4158291816711430,32.3433914184570300,15,3,50,125,63,2147636621,2147391931,2147291890,2148323139,2665,0,-4,52733
1341440257,6467,122.9100036621093800,5.4464998245239260,35.0051994323730500,356.5711975097656000,638.4246215820312000,5.4255981445312500,32.3459205627441400,16,3,50,131,62,2147635058,2147395195,2147290861,2148324205,2547,0,-4,55876
1341440321,6467,119.9300003051757800,5.4604997634887695,35.0055999755859400,356.4801940917969000,637.9661865234375000,5.4404368400573730,32.3409385681152340,16,3,50,128,63,2147634975,2147393407,2147293905,2148323514,2231,0,-4,12649
1341440383,6469,117.2399978637695300,5.4654002189636230,35.0060005187988300,356.3363037109375000,637.8203735351562000,5.4451599121093750,32.3427200317382800,16,3,50,132,62,2147634888,2147391478,2147291643,2148321928,2156,0,-4,33675
1341440447,6469,114.6800003051757800,5.4882001876831055,35.0060997009277340,355.8819885253906000,637.1406250000000000,5.4671611785888670,32.3455696105957000,21,3,50,147,62,2147635209,2147394148,2147295300,2148323551,1972,0,-4,42042
1341440509,6468,112.4499969482421900,5.5022997856140140,35.0073013305664060,355.9054870605469000,636.5894165039062000,5.4850029945373535,32.3350105285644500,16,3,51,130,62,2147634856,2147392274,2147296456,2148323450,1825,0,-4,32637
1341440597,6468,109.0999984741211000,5.5504999160766600,35.0073013305664060,355.3099060058594000,635.2291259765625000,5.5290088653564450,32.3305397033691400,16,3,52,130,62,2147635579,2147393928,2147296658,2148325412,1608,0,-4,45873
1341440659,6468,106.1800003051757800,5.5752000808715820,35.0070991516113300,355.5405883789062500,634.4489746093750000,5.5542368888854980,32.3092689514160160,16,3,52,130,63,2147635670,2147394221,2147297027,2148322107,1459,0,-4,34208
1341440723,6468,103.2500000000000000,5.6192998886108400,35.0069007873535160,355.5999145507812500,633.0247192382812000,5.6002879142761230,32.2821083068847660,16,3,51,154,62,2147635003,2147395478,2147295337,2148323492,1065,0,-4,63495
1341440785,6469,100.3399963378906200,5.6619000434875490,35.0063018798828100,356.4306030273437500,631.8516845703125000,5.6381931304931640,32.2345504760742200,13,3,54,150,62,2147634486,2147394632,2147293686,2148322249,697,0,-4,59149
1341440849,6467,97.1999969482421900,5.6767001152038570,35.0060997009277340,357.1677856445312500,631.2401733398438000,5.6579480171203610,32.2002601623535160,19,3,54,147,62,2147635510,2147394623,2147294769,2148322491,173,0,-4,45502
1341440911,6467,93.9499969482421900,5.7632999420166020,35.0027999877929700,358.2550964355469000,628.7086181640625000,5.7396979331970215,32.1209182739257800,13,3,54,146,62,2147631218,2147395611,2147295318,2148323967,130,0,-4,2760
1341440975,6467,90.4599990844726600,5.7946000099182130,35.0032997131347660,360.3984985351562500,627.5546875000000000,5.7769341468811035,32.0321807861328100,15,3,58,166,62,2147635515,2147394084,2147298587,2148319999,3158,0,-4,19686
1341441037,6467,86.8700027465820300,5.8601999282836910,35.0032005310058600,362.2240905761719000,625.7058715820312000,5.8365688323974610,31.9417800903320300,26,3,57,283,62,2147635322,2147393320,2147301192,2148320575,2896,0,-4,50816
1341441101,6466,83.0999984741211000,5.9196000099182130,35.0027999877929700,364.1058044433594000,623.7941284179688000,5.8982009887695310,31.8492698669433600,17,3,58,164,62,2147638943,2147397234,2147303684,2148324699,2649,0,-4,14408
1341441163,6467,79.6100006103515600,5.9697999954223630,35.0029983520507800,365.5197143554687500,622.2628784179688000,5.9475350379943850,31.7782707214355470,16,3,61,176,62,2147638577,2147398139,2147305233,2148323935,2490,0,-4,48463
1341441227,6468,76.1699981689453100,6.0128002166748050,35.0026016235351560,366.8710021972656000,620.8953247070312000,5.9915809631347660,31.7127799987792970,19,3,64,174,62,2147637257,2147398587,2147305426,2148324131,2376,0,-4,24006
1341441289,6467,73.1200027465820300,6.0460000038146970,35.0026016235351560,367.6054077148437500,619.8255004882812000,6.0260200500488280,31.6716403961181640,46,3,70,200,62,2147638240,2147395359,2147310249,2148321891,2195,0,-4,51079
1341441353,6469,70.0199966430664000,6.0732998847961430,35.0024986267089840,368.0758056640625000,618.9116821289062000,6.0554289817810060,31.6413898468017580,17,3,80,188,62,2147637092,2147397709,2147312049,2148327698,1933,0,-4,33019
1341441415,6469,66.8899993896484400,6.1153998374938965,35.0026016235351560,368.4124145507812500,617.7192993164062000,6.0937900543212890,31.6105003356933600,26,3,97,202,62,2147634600,2147396658,2147316132,2148328370,1715,0,-4,19535
1341441479,6468,63.2799987792968750,6.1380000114440920,35.0019989013671900,368.2413940429687500,616.9926757812500000,6.1171588897705080,31.6031703948974600,25,3,108,213,63,2147639625,2147401110,2147325453,2148328082,1633,0,-4,26489
1341441541,6468,59.2599983215332000,6.1718001365661620,35.0017013549804700,368.0776977539062500,615.7988891601562000,6.1555461883544920,31.5878791809082030,22,3,129,218,62,2147640881,2147404177,2147339615,2148329225,1394,0,-4,31079
1341441627,6469,53.4700012207031250,6.2491002082824710,35.0004997253418000,368.3281860351562500,613.6140747070312000,6.2257561683654785,31.5429897308349600,25,3,176,243,64,2147642184,2147416086,2147361892,2148340003,1235,0,-4,36639
1341441689,6469,49.9000015258789060,6.3042998313903810,34.9989013671875000,368.6195983886719000,612.0186157226562000,6.2769999504089355,31.5068302154541000,32,3,187,251,62,2147648726,2147423314,2147381307,2148342230,833,0,-4,2261
1341441780,6468,46.5000000000000000,6.3452000617980960,34.9949989318847660,368.9905090332031000,611.2958984375000000,6.3002028465271000,31.4829196929931640,36,3,191,244,63,2147651857,2147427615,2147395336,2148345507,56,0,-4,37975
1341442087,6470,43.8300018310546900,6.5054001808166500,34.9897003173828100,368.3706054687500000,605.8441772460938000,6.4750709533691410,31.4099903106689450,38,3,263,424,64,2147661334,2147442577,2147418563,2148356068,3192,0,-4,52007
1341442177,6470,39.8899993896484400,6.8744001388549805,34.9809989929199200,370.8703918457031000,595.6295166015625000,6.8019452095031740,31.1625194549560550,65,3,381,498,64,2147683802,2147477334,2147484625,2148372635,2318,0,-4,26008
1341442239,6469,36.4399986267089840,7.2424998283386230,34.9747009277343750,372.5928039550781000,583.9569702148438000,7.1742668151855470,30.9179306030273440,78,3,489,656,63,2147715441,2147520292,2147566522,2148396694,2131,0,-4,23219
1341442303,6469,32.8300018310546900,7.4559998512268070,34.9763984680175800,380.5335083007812500,574.3654785156250000,7.4792728424072270,30.5251808166503900,90,3,561,703,62,2147783478,2147604625,2147702874,2148438783,1448,0,-4,29988
1341442365,6471,29.5100002288818360,7.8208999633789060,34.9707984924316400,388.1487121582031000,564.5902709960938000,7.7892799377441410,30.1480293273925780,90,3,612,729,63,2147867066,2147708013,2147858934,2148490925,1735,0,-4,33567
1341442429,6468,26.1100006103515620,7.9583001136779785,34.9714012145996100,393.9296875000000000,558.7899780273438000,7.9728388786315920,29.8923206329345700,102,3,686,769,63,2148051007,2147920589,2148137316,2148588882,1890,0,-4,10550
1341442491,6469,22.9699993133544920,8.3038997650146480,34.9665985107421900,400.7514953613281000,549.5421752929688000,8.2649078369140620,29.5583305358886720,105,3,710,825,62,2148293892,2148185375,2148452630,2148700991,1984,0,-4,31183
1341442555,6468,20.4599990844726560,8.5718002319335940,34.9681015014648440,407.3454895019531000,541.5673217773438000,8.5162086486816400,29.2563705444335940,97,3,708,721,62,2148593343,2148509361,2148806047,2148829179,1289,0,-4,38529
1341442617,6470,18.2800006866455080,8.8740997314453120,34.9733009338378900,408.0094909667969000,529.1624145507812000,8.9060935974121100,29.0506191253662100,93,3,545,708,62,2148933187,2148863427,2149161284,2148971053,672,0,-4,21668
1341442696,6470,15.5799999237060550,9.3457002639770500,34.9799995422363300,404.6510925292969000,512.0062866210938000,9.4433526992797850,28.8852691650390620,98,3,409,714,60,2149409494,2149325736,2149607464,2149160717,397,0,-5,41587
1341442769,6471,13.9200000762939450,10.8102998733520500,34.9781990051269500,387.4715881347656000,469.6148071289062500,10.7619495391845700,28.7417793273925780,142,3,397,601,58,2149612758,2149514509,2149762413,2149230537,2007,1,-4,37906
1341442873,6472,12.0100002288818360,11.5640001296997070,34.9896011352539060,368.4649047851562500,445.0256958007812500,11.5215501785278320,28.9399604797363280,82,3,307,643,58,2150057421,2149954033,2150146614,2149419840,1583,0,-4,63369
1341442935,6470,9.3500003814697270,11.7012996673583980,34.9934005737304700,361.3034057617187500,439.7886047363281000,11.6828899383544920,29.0798606872558600,113,3,280,622,58,2150681860,2150551661,2150671052,2149704905,1665,1,-2,14460
1341443015,6471,5.1500000953674320,11.7187995910644530,34.9970016479492200,358.0322875976562500,438.8244934082031000,11.7125701904296880,29.1655693054199220,92,3,272,602,56,2152043894,2151836653,2151778070,2150491500,1209,4,-10,60319
1341443077,6469,2.5499999523162840,0.0000000000000000,0.0000000000000000,357.2944946289062500,438.7968139648437500,11.7134304046630860,29.1876106262207030,82,3,271,598,58,2152862874,2152605457,2152426111,2151165014,681,-4,9,47468
1341443110,6447,67.0000000000000000,0.0000000000000000,0.0000000000000000,356.9544067382812500,438.8442993164062500,11.7119703292846680,29.1987705230712900,76,3,272,544,56,2153423771,2153306436,2153113471,2151955387,1234,8,6,30900
